| time (UTC) | temp F | wind direction | speed knots | gust knots | rain 1hr in | rain 24hr in | rain mn in | humidity % | barometer mb |
| 20260503212013 | 53 | 150 | 0.9 | 2.6 | 0.00 | 0.00 | 0.00 | 92 | 1021.0 |
| 20260503211513 | 53 | 123 | 0.0 | 0.9 | 0.00 | 0.00 | 0.00 | 91 | 1021.0 |
| 20260503211011 | 53 | 145 | 0.0 | 0.9 | 0.00 | 0.00 | 0.00 | 90 | 1021.0 |
| 20260503210511 | 54 | 83 | 0.0 | 0.9 | 0.00 | 0.00 | 0.00 | 90 | 1021.0 |
| 20260503210011 | 54 | 84 | 0.0 | 1.7 | 0.00 | 0.00 | 0.00 | 89 | 1021.0 |
| 20260503205005 | 54 | 127 | 0.0 | 0.9 | 0.00 | 0.00 | 0.00 | 89 | 1021.0 |
| 20260503204459 | 54 | 98 | 0.0 | 0.9 | 0.00 | 0.00 | 0.00 | 90 | 1021.1 |
| 20260503203954 | 54 | 108 | 0.0 | 0.9 | 0.00 | 0.00 | 0.00 | 91 | 1021.2 |
| 20260503203452 | 54 | 107 | 0.0 | 0.9 | 0.00 | 0.00 | 0.00 | 91 | 1021.1 |
| 20260503202952 | 54 | 135 | 0.0 | 0.0 | 0.00 | 0.00 | 0.00 | 91 | 1021.3 |
| 20260503202451 | 54 | 115 | 0.0 | 0.0 | 0.00 | 0.00 | 0.00 | 91 | 1021.1 |
| 20260503201950 | 54 | 105 | 0.0 | 0.9 | 0.00 | 0.00 | 0.00 | 90 | 1021.2 |
| 20260503200953 | 55 | 117 | 0.0 | 0.9 | 0.00 | 0.00 | 0.00 | 90 | 1021.1 |
| 20260503200452 | 55 | 127 | 0.0 | 0.9 | 0.00 | 0.00 | 0.00 | 89 | 1021.1 |
| 20260503194949 | 55 | 116 | 0.0 | 0.9 | 0.00 | 0.00 | 0.00 | 88 | 1020.9 |
| 20260503194450 | 56 | 153 | 0.0 | 0.9 | 0.00 | 0.00 | 0.00 | 86 | 1020.9 |
| 20260503193950 | 56 | 132 | 0.0 | 1.7 | 0.00 | 0.00 | 0.00 | 86 | 1021.0 |
| 20260503193447 | 56 | 123 | 0.0 | 2.6 | 0.00 | 0.00 | 0.00 | 85 | 1020.9 |
| 20260503192941 | 57 | 196 | 0.0 | 2.6 | 0.00 | 0.00 | 0.00 | 84 | 1020.8 |
| 20260503192437 | 57 | 150 | 0.0 | 1.7 | 0.00 | 0.00 | 0.00 | 83 | 1020.9 |
| 20260503191434 | 58 | 120 | 0.0 | 1.7 | 0.00 | 0.00 | 0.00 | 78 | 1020.7 |
| 20260503190435 | 58 | 203 | 0.0 | 1.7 | 0.00 | 0.00 | 0.00 | 63 | 1020.5 |
| 20260503185933 | 58 | 208 | 0.0 | 1.7 | 0.00 | 0.00 | 0.00 | 63 | 1020.6 |
| 20260503185431 | 59 | 127 | 0.0 | 1.7 | 0.00 | 0.00 | 0.00 | 63 | 1020.5 |
| 20260503184932 | 59 | 138 | 0.9 | 5.2 | 0.00 | 0.00 | 0.00 | 62 | 1020.3 |
| 20260503183932 | 59 | 202 | 1.7 | 7.0 | 0.00 | 0.00 | 0.00 | 61 | 1020.2 |
| 20260503183429 | 60 | 288 | 1.7 | 7.0 | 0.00 | 0.00 | 0.00 | 61 | 1020.2 |
| 20260503182927 | 60 | 232 | 1.7 | 6.1 | 0.00 | 0.00 | 0.00 | 61 | 1020.1 |
| 20260503182427 | 60 | 253 | 0.9 | 5.2 | 0.00 | 0.00 | 0.00 | 60 | 1020.1 |
| 20260503181927 | 60 | 252 | 1.7 | 6.1 | 0.00 | 0.00 | 0.00 | 60 | 1020.1 |
| 20260503180928 | 61 | 262 | 0.9 | 7.0 | 0.00 | 0.00 | 0.00 | 59 | 1020.0 |
| 20260503180428 | 61 | 216 | 1.7 | 7.0 | 0.00 | 0.00 | 0.00 | 60 | 1020.1 |
| 20260503175926 | 62 | 269 | 1.7 | 7.0 | 0.00 | 0.00 | 0.00 | 59 | 1020.1 |
| 20260503175423 | 62 | 244 | 1.7 | 6.1 | 0.00 | 0.00 | 0.00 | 59 | 1020.1 |
| 20260503174924 | 63 | 262 | 1.7 | 6.1 | 0.00 | 0.00 | 0.00 | 60 | 1020.0 |
| 20260503174427 | 63 | 252 | 1.7 | 5.2 | 0.00 | 0.00 | 0.00 | 58 | 1020.0 |
| 20260503173925 | 63 | 258 | 1.7 | 5.2 | 0.00 | 0.00 | 0.00 | 58 | 1019.9 |
| 20260503173424 | 63 | 207 | 1.7 | 7.8 | 0.00 | 0.00 | 0.00 | 58 | 1019.9 |
| 20260503172923 | 63 | 273 | 1.7 | 7.8 | 0.00 | 0.00 | 0.00 | 58 | 1019.9 |
| 20260503172424 | 63 | 211 | 1.7 | 7.8 | 0.00 | 0.00 | 0.00 | 58 | 1019.9 |
| 20260503171925 | 64 | 239 | 2.6 | 7.8 | 0.00 | 0.00 | 0.00 | 57 | 1019.9 |
| 20260503170924 | 64 | 274 | 2.6 | 8.7 | 0.00 | 0.00 | 0.00 | 58 | 1019.9 |
| 20260503170423 | 65 | 261 | 3.5 | 8.7 | 0.00 | 0.00 | 0.00 | 57 | 1019.9 |
| 20260503150900 | 68 | 270 | 0.9 | 3.5 | 0.00 | 0.00 | 0.00 | 56 | 1020.2 |
| 20260503150400 | 68 | 255 | 1.7 | 7.0 | 0.00 | 0.00 | 0.00 | 54 | 1020.3 |
| 20260503131345 | 67 | 257 | 4.3 | 12.2 | 0.00 | 0.00 | 0.00 | 59 | 1021.4 |
| 20260503130849 | 67 | 278 | 4.3 | 11.3 | 0.00 | 0.00 | 0.00 | 59 | 1021.5 |
| 20260503130346 | 68 | 271 | 3.5 | 11.3 | 0.00 | 0.00 | 0.00 | 58 | 1021.6 |
| 20260503110336 | 67 | 127 | 1.7 | 6.1 | 0.00 | 0.00 | 0.00 | 54 | 1022.0 |
| 20260503090322 | 62 | 170 | 0.9 | 4.3 | 0.00 | 0.00 | 0.00 | 66 | 1022.7 |
| 20260503081309 | 59 | 211 | 0.9 | 3.5 | 0.00 | 0.00 | 0.00 | 78 | 1022.7 |
| 20260503080806 | 59 | 102 | 0.9 | 3.5 | 0.00 | 0.00 | 0.00 | 78 | 1022.7 |
| 20260503072801 | 58 | 238 | 0.0 | 1.7 | 0.00 | 0.00 | 0.00 | 78 | 1022.7 |
| 20260503072304 | 58 | 185 | 0.0 | 1.7 | 0.00 | 0.00 | 0.00 | 79 | 1022.7 |
| 20260503071801 | 57 | 204 | 0.0 | 1.7 | 0.00 | 0.00 | 0.00 | 80 | 1022.8 |
| 20260503071301 | 56 | 200 | 0.9 | 2.6 | 0.00 | 0.00 | 0.00 | 82 | 1022.8 |
| 20260503070801 | 56 | 193 | 0.9 | 2.6 | 0.00 | 0.00 | 0.00 | 83 | 1022.8 |
| 20260503070304 | 56 | 158 | 0.9 | 3.5 | 0.00 | 0.00 | 0.00 | 83 | 1022.8 |
| 20260503060259 | 55 | 172 | 0.0 | 0.9 | 0.00 | 0.00 | 0.00 | 83 | 1022.8 |
| 20260503054800 | 55 | 150 | 0.0 | 0.9 | 0.00 | 0.00 | 0.00 | 85 | 1022.7 |
| 20260503054301 | 55 | 139 | 0.0 | 0.9 | 0.00 | 0.00 | 0.00 | 85 | 1022.7 |
| 20260503053302 | 53 | 148 | 0.0 | 0.0 | 0.00 | 0.00 | 0.00 | 85 | 1022.6 |
| 20260503052800 | 52 | 165 | 0.0 | 0.0 | 0.00 | 0.00 | 0.00 | 86 | 1022.6 |
| 20260503052257 | 52 | 165 | 0.0 | 0.0 | 0.00 | 0.00 | 0.00 | 84 | 1022.6 |
| 20260503051800 | 53 | 165 | 0.0 | 0.0 | 0.00 | 0.00 | 0.00 | 82 | 1022.6 |
| 20260503051301 | 53 | 157 | 0.0 | 0.0 | 0.00 | 0.00 | 0.00 | 82 | 1022.5 |
| 20260503050755 | 53 | 112 | 0.0 | 0.0 | 0.00 | 0.00 | 0.00 | 84 | 1022.5 |
| 20260503050257 | 52 | 113 | 0.0 | 0.9 | 0.00 | 0.00 | 0.00 | 84 | 1022.3 |
| 20260503045757 | 52 | 131 | 0.0 | 0.9 | 0.00 | 0.00 | 0.00 | 84 | 1022.3 |
| 20260503045255 | 52 | 117 | 0.0 | 0.0 | 0.00 | 0.00 | 0.00 | 86 | 1022.3 |
| 20260503044756 | 51 | 112 | 0.0 | 0.0 | 0.00 | 0.00 | 0.00 | 87 | 1022.2 |
| 20260503044254 | 51 | 112 | 0.0 | 0.0 | 0.00 | 0.00 | 0.00 | 88 | 1022.2 |
| 20260503043751 | 50 | 117 | 0.0 | 0.0 | 0.00 | 0.00 | 0.00 | 89 | 1022.3 |
| 20260503043244 | 49 | 129 | 0.0 | 0.0 | 0.00 | 0.00 | 0.00 | 92 | 1022.3 |
| 20260503042738 | 49 | 129 | 0.0 | 0.0 | 0.00 | 0.00 | 0.00 | 92 | 1022.3 |
| 20260503042241 | 49 | 129 | 0.0 | 0.0 | 0.00 | 0.00 | 0.00 | 93 | 1022.2 |
| 20260503041739 | 49 | 130 | 0.0 | 0.0 | 0.00 | 0.00 | 0.00 | 93 | 1022.2 |
| 20260503041239 | 49 | 129 | 0.0 | 0.0 | 0.00 | 0.00 | 0.00 | 93 | 1022.2 |
| 20260503040739 | 49 | 129 | 0.0 | 0.0 | 0.00 | 0.00 | 0.00 | 92 | 1022.1 |
| 20260503040239 | 49 | 129 | 0.0 | 0.0 | 0.00 | 0.00 | 0.00 | 92 | 1022.1 |
| 20260503035740 | 49 | 130 | 0.0 | 0.0 | 0.00 | 0.00 | 0.00 | 92 | 1022.2 |
| 20260503035236 | 49 | 165 | 0.0 | 0.0 | 0.00 | 0.00 | 0.00 | 91 | 1022.2 |
| 20260503034733 | 49 | 166 | 0.0 | 0.0 | 0.00 | 0.00 | 0.00 | 91 | 1022.2 |
| 20260503034232 | 49 | 166 | 0.0 | 0.0 | 0.00 | 0.00 | 0.00 | 91 | 1022.2 |
| 20260503033230 | 49 | 114 | 0.0 | 0.0 | 0.00 | 0.00 | 0.00 | 91 | 1022.1 |
| 20260503032730 | 49 | 114 | 0.0 | 0.0 | 0.00 | 0.00 | 0.00 | 90 | 1022.1 |
| 20260503032228 | 49 | 121 | 0.0 | 0.0 | 0.00 | 0.00 | 0.00 | 90 | 1022.1 |
| 20260503031728 | 49 | 131 | 0.0 | 0.0 | 0.00 | 0.00 | 0.00 | 90 | 1022.2 |
| 20260503031226 | 49 | 129 | 0.0 | 0.0 | 0.00 | 0.00 | 0.00 | 90 | 1022.2 |
| 20260503030723 | 49 | 124 | 0.0 | 0.0 | 0.00 | 0.00 | 0.00 | 89 | 1022.3 |
| 20260503030222 | 49 | 128 | 0.0 | 0.0 | 0.00 | 0.00 | 0.00 | 89 | 1022.2 |
| 20260503025723 | 50 | 168 | 0.0 | 0.9 | 0.00 | 0.00 | 0.00 | 88 | 1022.3 |
| 20260503024720 | 50 | 166 | 0.0 | 0.0 | 0.00 | 0.00 | 0.00 | 86 | 1022.3 |
| 20260503024216 | 50 | 135 | 0.0 | 0.0 | 0.00 | 0.00 | 0.00 | 82 | 1022.2 |
| 20260503023714 | 51 | 135 | 0.0 | 0.0 | 0.00 | 0.00 | 0.00 | 82 | 1022.2 |
| 20260503023212 | 51 | 120 | 0.0 | 0.0 | 0.00 | 0.00 | 0.00 | 82 | 1022.2 |
| 20260503022714 | 51 | 115 | 0.0 | 0.0 | 0.00 | 0.00 | 0.00 | 82 | 1022.1 |
| 20260503022211 | 51 | 115 | 0.0 | 0.0 | 0.00 | 0.00 | 0.00 | 82 | 1022.2 |
| 20260503021707 | 51 | 120 | 0.0 | 0.0 | 0.00 | 0.00 | 0.00 | 83 | 1022.2 |
| 20260503021207 | 51 | 109 | 0.0 | 0.0 | 0.00 | 0.00 | 0.00 | 83 | 1022.1 |
| 20260503020207 | 51 | 109 | 0.0 | 0.0 | 0.00 | 0.00 | 0.00 | 85 | 1022.3 |
| 20260503015700 | 51 | 109 | 0.0 | 0.0 | 0.00 | 0.00 | 0.00 | 86 | 1022.2 |
| 20260503015200 | 51 | 112 | 0.0 | 0.0 | 0.00 | 0.00 | 0.00 | 86 | 1022.2 |
| 20260503014659 | 51 | 111 | 0.0 | 0.0 | 0.00 | 0.00 | 0.00 | 87 | 1022.2 |
| 20260503014159 | 51 | 111 | 0.0 | 0.0 | 0.00 | 0.00 | 0.00 | 87 | 1022.3 |
| 20260503013701 | 51 | 122 | 0.0 | 0.0 | 0.00 | 0.00 | 0.00 | 88 | 1022.2 |
| 20260503013158 | 51 | 125 | 0.0 | 0.0 | 0.00 | 0.00 | 0.00 | 87 | 1022.3 |
| 20260503012159 | 51 | 130 | 0.0 | 0.0 | 0.00 | 0.00 | 0.00 | 87 | 1022.5 |
| 20260503011657 | 51 | 109 | 0.0 | 0.0 | 0.00 | 0.00 | 0.00 | 86 | 1022.5 |
| 20260503011157 | 51 | 127 | 0.0 | 0.0 | 0.00 | 0.00 | 0.00 | 87 | 1022.5 |
| 20260503010656 | 51 | 128 | 0.0 | 0.0 | 0.00 | 0.00 | 0.00 | 85 | 1022.6 |
| 20260503010200 | 51 | 125 | 0.0 | 0.0 | 0.00 | 0.00 | 0.00 | 86 | 1022.6 |
| 20260503005157 | 51 | 134 | 0.0 | 0.0 | 0.00 | 0.00 | 0.00 | 84 | 1022.7 |
| 20260503004158 | 51 | 136 | 0.0 | 0.0 | 0.00 | 0.00 | 0.00 | 84 | 1022.8 |
| 20260503003659 | 51 | 160 | 0.0 | 0.9 | 0.00 | 0.00 | 0.00 | 84 | 1022.8 |
| 20260503003200 | 51 | 137 | 0.0 | 1.7 | 0.00 | 0.00 | 0.00 | 84 | 1022.9 |
| 20260503002158 | 51 | 126 | 0.9 | 2.6 | 0.00 | 0.00 | 0.00 | 84 | 1023.0 |
| 20260503001657 | 51 | 162 | 0.0 | 1.7 | 0.00 | 0.00 | 0.00 | 83 | 1023.0 |
| 20260503001159 | 52 | 139 | 0.0 | 0.9 | 0.00 | 0.00 | 0.00 | 82 | 1023.1 |
| 20260503000657 | 52 | 140 | 0.0 | 0.9 | 0.00 | 0.00 | 0.00 | 81 | 1023.0 |
| 20260503000156 | 52 | 142 | 0.0 | 0.0 | 0.00 | 0.00 | 0.00 | 80 | 1023.1 |
| 20260502235656 | 52 | 121 | 0.0 | 0.0 | 0.00 | 0.00 | 0.00 | 80 | 1023.1 |
| 20260502235159 | 52 | 130 | 0.0 | 0.9 | 0.00 | 0.00 | 0.00 | 80 | 1023.2 |
| 20260502234657 | 52 | 122 | 0.0 | 1.7 | 0.00 | 0.00 | 0.00 | 81 | 1023.2 |
| 20260502234157 | 52 | 113 | 0.0 | 1.7 | 0.00 | 0.00 | 0.00 | 83 | 1023.2 |
| 20260502233658 | 52 | 108 | 0.0 | 0.9 | 0.00 | 0.00 | 0.00 | 83 | 1023.3 |
| 20260502233155 | 52 | 115 | 0.0 | 1.7 | 0.00 | 0.00 | 0.00 | 82 | 1023.3 |
| 20260502232656 | 52 | 94 | 0.0 | 3.5 | 0.00 | 0.00 | 0.00 | 81 | 1023.4 |
| 20260502231655 | 53 | 96 | 0.0 | 1.7 | 0.00 | 0.00 | 0.00 | 77 | 1023.4 |
| 20260502231155 | 53 | 131 | 0.0 | 1.7 | 0.00 | 0.00 | 0.00 | 75 | 1023.5 |
| 20260502230654 | 53 | 115 | 0.0 | 0.9 | 0.00 | 0.00 | 0.00 | 73 | 1023.5 |
| 20260502230156 | 54 | 141 | 0.0 | 0.0 | 0.00 | 0.00 | 0.00 | 71 | 1023.5 |
| 20260502225657 | 54 | 34 | 0.0 | 0.0 | 0.00 | 0.00 | 0.00 | 70 | 1023.5 |
| 20260502225155 | 54 | 34 | 0.0 | 0.0 | 0.00 | 0.00 | 0.00 | 69 | 1023.5 |
| 20260502223651 | 55 | 32 | 0.0 | 0.0 | 0.00 | 0.00 | 0.00 | 68 | 1023.6 |
| 20260502223152 | 55 | 32 | 0.0 | 0.0 | 0.00 | 0.00 | 0.00 | 66 | 1023.5 |
| 20260502222651 | 54 | 32 | 0.0 | 0.0 | 0.00 | 0.00 | 0.00 | 66 | 1023.4 |
| 20260502221151 | 54 | 32 | 0.0 | 0.9 | 0.00 | 0.00 | 0.00 | 67 | 1023.5 |
| 20260502220646 | 54 | 32 | 0.0 | 0.9 | 0.00 | 0.00 | 0.00 | 68 | 1023.4 |
| 20260502220145 | 54 | 32 | 0.0 | 0.0 | 0.00 | 0.00 | 0.00 | 68 | 1023.5 |
| 20260502215646 | 54 | 32 | 0.0 | 0.0 | 0.00 | 0.00 | 0.00 | 69 | 1023.6 |
| 20260502215143 | 54 | 32 | 0.0 | 0.0 | 0.00 | 0.00 | 0.00 | 69 | 1023.6 |
| 20260502214643 | 54 | 119 | 0.0 | 0.0 | 0.00 | 0.00 | 0.00 | 68 | 1023.6 |
| 20260502214142 | 54 | 119 | 0.0 | 0.0 | 0.00 | 0.00 | 0.00 | 68 | 1023.6 |
| 20260502213640 | 54 | 119 | 0.0 | 0.9 | 0.00 | 0.00 | 0.00 | 68 | 1023.5 |
| 20260502213137 | 55 | 117 | 0.0 | 1.7 | 0.00 | 0.00 | 0.00 | 68 | 1023.6 |
| 20260502212637 | 55 | 12 | 0.0 | 1.7 | 0.00 | 0.00 | 0.00 | 67 | 1023.5 |